This is the latest recevied weather packets stored in our database for station/object K1BWE-1. If no packets are shown the sender has not sent any weather packets the latest 10 day(s).
| Time | Temp. | Humidity | Pressure | Rain* | Wind** | Luminosity | Snow |
|---|---|---|---|---|---|---|---|
| 1777502673 | 26.11° C | 13% | 1015 hPa | 0 mm | - | 202 W/m² | - |
| 1777502066 | 26.67° C | 15% | 1015.2 hPa | 0 mm | - | 189 W/m² | - |
| 1777501157 | 26.67° C | 13% | 1015.4 hPa | 0 mm | - | 241 W/m² | - |
| 1777500856 | 26.67° C | 12% | 1015.2 hPa | 0 mm | - | 247 W/m² | - |
| 1777500552 | 26.67° C | 13% | 1015 hPa | 0 mm | - | 251 W/m² | - |
| 1777500249 | 26.67° C | 14% | 1015.3 hPa | 0 mm | - | 288 W/m² | - |
| 1777499945 | 26.67° C | 11% | 1015.5 hPa | 0 mm | - | 281 W/m² | - |
| 1777499642 | 26.67° C | 11% | 1015.5 hPa | 0 mm | - | 299 W/m² | - |
| 1777498732 | 26.67° C | 13% | 1015.6 hPa | 0 mm | - | 317 W/m² | - |
| 1777498429 | 27.22° C | 11% | 1016 hPa | 0 mm | - | 402 W/m² | - |
| 1777498126 | 27.22° C | 12% | 1015.9 hPa | 0 mm | - | 423 W/m² | - |
| 1777497216 | 27.78° C | 12% | 1015.8 hPa | 0 mm | - | 465 W/m² | - |
| 1777496912 | 28.33° C | 12% | 1016.1 hPa | 0 mm | - | 444 W/m² | - |
| 1777496609 | 28.33° C | 12% | 1016 hPa | 0 mm | - | 604 W/m² | - |
| 1777496306 | 27.78° C | 14% | 1016.2 hPa | 0 mm | - | 694 W/m² | - |
| 1777495091 | 27.78° C | 14% | 1016.2 hPa | 0 mm | - | 624 W/m² | - |
| 1777494788 | 28.33° C | 12% | 1016.1 hPa | 0 mm | - | 625 W/m² | - |
| 1777494485 | 28.33° C | 16% | 1016.2 hPa | 0 mm | - | 543 W/m² | - |
| 1777494182 | 27.78° C | 13% | 1016.3 hPa | 0 mm | - | 827 W/m² | - |
| 1777493879 | 27.78° C | 15% | 1016.6 hPa | 0 mm | - | 707 W/m² | - |
| 1777492970 | 27.22° C | 14% | 1016.4 hPa | 0 mm | - | 795 W/m² | - |
| 1777492668 | 27.22° C | 16% | 1016.3 hPa | 0 mm | - | 386 W/m² | - |
| 1777492367 | 27.22° C | 18% | 1016.5 hPa | 0 mm | - | 602 W/m² | - |
| 1777491458 | 26.67° C | 15% | 1016.8 hPa | 0 mm | - | 670 W/m² | - |
| 1777491155 | 27.22° C | 14% | 1017 hPa | 0 mm | - | 665 W/m² | - |
* Rain latest hour (hover to see other rain measurements)
** Current wind speed in m/s (hover to see current wind gust speed)